"Period start","avg(HW err(1)/warn(2) (#))","avg(Visibility (m))","avg(Weather code (#))","avg(Precip intensity (mm/h))","min(HW err(1)/warn(2) (#))","max(HW err(1)/warn(2) (#))","std(HW err(1)/warn(2) (#))","med(HW err(1)/warn(2) (#))","min(Visibility (m))","max(Visibility (m))","std(Visibility (m))","med(Visibility (m))","min(Weather code (#))","max(Weather code (#))","std(Weather code (#))","med(Weather code (#))","min(Precip intensity (mm/h))","max(Precip intensity (mm/h))","std(Precip intensity (mm/h))","med(Precip intensity (mm/h))"
2016-07-15 00:00:00,0,49564,0,0.00,0,0,0,0,48245,50000,663,50000,0,0,0,0,0.00,0.00,0.00,0.00
2016-07-15 00:10:00,0,48721,0,0.00,0,0,0,0,42321,50000,2389,50000,0,0,0,0,0.00,0.00,0.00,0.00
2016-07-15 00:20:00,0,48717,0,0.00,0,0,0,0,40101,50000,2920,50000,0,0,0,0,0.00,0.00,0.00,0.00
2016-07-15 00:30:00,0,47664,0,0.00,0,0,0,0,43559,50000,2292,48264,0,0,0,0,0.00,0.00,0.00,0.00
2016-07-15 00:40:00,0,47703,0,0.00,0,0,0,0,42326,50000,2949,49684,0,0,0,0,0.00,0.00,0.00,0.00
2016-07-15 00:50:00,0,44960,0,0.00,0,0,0,0,37975,50000,3382,45505,0,0,0,0,0.00,0.00,0.00,0.00
2016-07-15 01:00:00,0,43635,0,0.00,0,0,0,0,32200,50000,5894,44194,0,0,0,0,0.00,0.00,0.00,0.00
2016-07-15 01:10:00,0,40516,0,0.00,0,0,0,0,33545,47859,5201,39482,0,0,0,0,0.00,0.00,0.00,0.00
2016-07-15 01:20:00,0,44372,0,0.00,0,0,0,0,35308,50000,4959,45766,0,0,0,0,0.00,0.00,0.00,0.00
2016-07-15 01:30:00,0,42667,0,0.00,0,0,0,0,30426,50000,6545,42798,0,0,0,0,0.00,0.00,0.00,0.00
2016-07-15 01:40:00,0,46707,0,0.00,0,0,0,0,42002,50000,2339,46694,0,0,0,0,0.00,0.00,0.00,0.00
2016-07-15 01:50:00,0,48852,0,0.00,0,0,0,0,45419,50000,1506,49876,0,0,0,0,0.00,0.00,0.00,0.00
2016-07-15 02:00:00,0,43683,0,0.00,0,0,0,0,32478,49973,5395,45500,0,0,0,0,0.00,0.00,0.00,0.00
2016-07-15 02:10:00,0,39723,0,0.00,0,0,0,0,32479,48467,4691,40484,0,0,0,0,0.00,0.00,0.00,0.00
2016-07-15 02:20:00,0,45730,0,0.00,0,2,1,0,38181,50000,4469,47636,0,0,0,0,0.00,0.00,0.00,0.00
2016-07-15 02:30:00,1,44957,0,0.00,0,2,1,0,30003,50000,6765,47980,0,0,0,0,0.00,0.00,0.00,0.00
2016-07-15 02:40:00,0,45242,0,0.00,0,0,0,0,37295,50000,5680,49592,0,0,0,0,0.00,0.00,0.00,0.00
2016-07-15 02:50:00,0,45925,0,0.00,0,0,0,0,37060,50000,4324,48482,0,0,0,0,0.00,0.00,0.00,0.00
2016-07-15 03:00:00,0,49013,0,0.00,0,0,0,0,45531,50000,1654,50000,0,0,0,0,0.00,0.00,0.00,0.00
2016-07-15 03:10:00,0,46418,0,0.00,0,0,0,0,36423,50000,5004,49696,0,0,0,0,0.00,0.00,0.00,0.00
2016-07-15 03:20:00,0,48050,0,0.00,0,0,0,0,44702,50000,2064,48752,0,0,0,0,0.00,0.00,0.00,0.00
2016-07-15 03:30:00,0,47739,0,0.00,0,0,0,0,40765,50000,3090,49114,0,0,0,0,0.00,0.00,0.00,0.00
2016-07-15 03:40:00,0,49730,0,0.00,0,0,0,0,48081,50000,576,50000,0,0,0,0,0.00,0.00,0.00,0.00
2016-07-15 03:50:00,0,49441,0,0.00,0,0,0,0,46950,50000,990,50000,0,0,0,0,0.00,0.00,0.00,0.00
2016-07-15 04:00:00,0,49096,0,0.00,0,0,0,0,45744,50000,1555,50000,0,0,0,0,0.00,0.00,0.00,0.00
2016-07-15 04:10:00,0,50000,0,0.00,0,0,0,0,50000,50000,0,50000,0,0,0,0,0.00,0.00,0.00,0.00
2016-07-15 04:20:00,0,48863,0,0.00,0,0,0,0,43022,50000,2270,50000,0,0,0,0,0.00,0.00,0.00,0.00
2016-07-15 04:30:00,0,49470,0,0.00,0,0,0,0,46774,50000,1091,50000,0,0,0,0,0.00,0.00,0.00,0.00
2016-07-15 04:40:00,0,49827,0,0.00,0,0,0,0,48272,50000,518,50000,0,0,0,0,0.00,0.00,0.00,0.00
2016-07-15 04:50:00,0,50000,0,0.00,0,0,0,0,50000,50000,0,50000,0,0,0,0,0.00,0.00,0.00,0.00
2016-07-15 05:00:00,0,49729,0,0.00,0,0,0,0,48879,50000,423,50000,0,0,0,0,0.00,0.00,0.00,0.00
2016-07-15 05:10:00,0,50000,0,0.00,0,0,0,0,50000,50000,0,50000,0,0,0,0,0.00,0.00,0.00,0.00
2016-07-15 05:20:00,0,48683,0,0.00,0,0,0,0,41610,50000,2542,50000,0,0,0,0,0.00,0.00,0.00,0.00
2016-07-15 05:30:00,0,47426,49,0.38,0,0,0,0,39401,50000,3921,49613,0,61,24,61,0.00,2.05,0.64,0.10
2016-07-15 05:40:00,0,50000,6,0.00,0,0,0,0,50000,50000,0,50000,0,61,18,0,0.00,0.00,0.00,0.00
2016-07-15 05:50:00,0,48505,0,0.00,0,0,0,0,36980,50000,3869,50000,0,0,0,0,0.00,0.00,0.00,0.00
2016-07-15 06:00:00,0,47135,43,0.13,0,0,0,0,37401,50000,3835,48814,0,61,28,61,0.00,0.60,0.20,0.03
2016-07-15 06:10:00,0,48587,30,0.07,0,0,0,0,45230,50000,1459,48625,0,61,30,30,0.00,0.65,0.19,0.00
2016-07-15 06:20:00,0,30122,34,3.15,0,0,0,0,7579,50000,15853,27151,0,61,28,52,0.00,13.95,4.25,0.98
2016-07-15 06:30:00,0,16254,61,8.38,0,0,0,0,8947,31733,6601,14901,61,62,0,61,0.35,21.90,6.24,6.90
2016-07-15 06:40:00,0,29103,30,1.22,0,0,0,0,10634,50000,16331,26361,0,61,30,30,0.00,3.85,1.62,0.07
2016-07-15 06:50:00,0,19468,24,3.51,0,0,0,0,7318,50000,14120,11635,0,62,30,0,0.00,13.45,4.77,0.00
2016-07-15 07:00:00,0,13577,62,10.86,0,0,0,0,7508,32272,7440,9964,61,62,0,62,0.20,23.20,8.58,9.12
2016-07-15 07:10:00,0,47295,12,0.09,0,0,0,0,36402,50000,4138,49482,0,61,24,0,0.00,0.90,0.27,0.00
2016-07-15 07:20:00,0,31927,56,0.31,0,0,0,0,13370,50000,11083,31994,51,61,5,56,0.05,1.15,0.33,0.17
2016-07-15 07:30:00,0,41896,51,0.17,0,0,0,0,32450,50000,6047,42458,51,51,0,51,0.00,0.40,0.12,0.17
2016-07-15 07:40:00,0,47141,46,0.09,0,0,0,0,41421,50000,3196,48734,0,51,15,51,0.00,0.20,0.07,0.08
2016-07-15 07:50:00,0,25073,49,6.17,0,0,0,0,6472,50000,14289,24250,0,62,25,61,0.00,25.95,9.19,1.33
2016-07-15 08:00:00,0,12276,62,15.48,0,0,0,0,8255,17929,2925,12164,61,62,0,62,5.05,34.00,8.52,15.05
2016-07-15 08:10:00,0,16422,61,7.96,0,0,0,0,10870,22046,3506,15908,61,62,0,61,6.00,12.65,2.45,6.65
2016-07-15 08:20:00,0,14094,61,9.38,0,0,0,0,8120,22764,4827,13680,61,62,0,61,1.40,22.30,6.53,8.25
2016-07-15 08:30:00,1,21015,61,4.57,0,2,1,1,11085,34153,7331,20428,61,62,0,61,1.75,11.70,3.06,3.33
2016-07-15 08:40:00,0,22476,61,4.04,0,0,0,0,14403,33200,4969,22066,61,61,0,61,2.30,6.45,1.32,4.10
2016-07-15 08:50:00,0,31591,61,2.61,0,0,0,0,20209,41290,7878,29718,61,61,0,61,1.20,4.70,1.18,2.12
2016-07-15 09:00:00,0,29560,61,3.71,0,0,0,0,20086,48362,9194,25252,61,61,0,61,1.60,6.75,1.71,3.38
2016-07-15 09:10:00,2,40895,61,1.45,0,2,1,2,22666,50000,7704,42968,61,61,0,61,0.15,3.75,1.29,1.10
2016-07-15 09:20:00,0,49531,53,0.15,0,2,1,0,47283,50000,953,50000,51,61,4,51,0.00,0.60,0.16,0.12
2016-07-15 09:30:00,0,50000,47,0.09,0,0,0,0,50000,50000,0,50000,0,61,16,51,0.00,0.20,0.08,0.10
2016-07-15 09:40:00,0,50000,0,0.00,0,0,0,0,50000,50000,0,50000,0,0,0,0,0.00,0.00,0.00,0.00
2016-07-15 09:50:00,0,47197,24,0.36,0,0,0,0,36233,50000,4445,50000,0,61,30,0,0.00,1.60,0.59,0.00
2016-07-15 10:00:00,2,49752,0,0.00,0,2,1,2,47524,50000,743,50000,0,0,0,0,0.00,0.00,0.00,0.00
2016-07-15 10:10:00,0,50000,0,0.00,0,0,0,0,50000,50000,0,50000,0,0,0,0,0.00,0.00,0.00,0.00
2016-07-15 10:20:00,0,50000,0,0.00,0,0,0,0,50000,50000,0,50000,0,0,0,0,0.00,0.00,0.00,0.00
2016-07-15 10:30:00,0,50000,0,0.00,0,0,0,0,50000,50000,0,50000,0,0,0,0,0.00,0.00,0.00,0.00
2016-07-15 10:40:00,0,50000,0,0.00,0,0,0,0,50000,50000,0,50000,0,0,0,0,0.00,0.00,0.00,0.00
2016-07-15 10:50:00,0,49694,53,0.18,0,0,0,0,46942,50000,917,50000,51,61,4,51,0.00,0.70,0.21,0.10
2016-07-15 11:00:00,0,50000,53,0.07,0,0,0,0,50000,50000,0,50000,51,61,4,51,0.00,0.15,0.06,0.08
2016-07-15 11:10:00,1,50000,18,0.01,0,2,1,0,50000,50000,0,50000,0,61,28,0,0.00,0.05,0.02,0.00
2016-07-15 11:20:00,2,50000,0,0.00,2,2,0,2,50000,50000,0,50000,0,0,0,0,0.00,0.00,0.00,0.00
2016-07-15 11:30:00,2,50000,0,0.00,2,2,0,2,50000,50000,0,50000,0,0,0,0,0.00,0.00,0.00,0.00
2016-07-15 11:40:00,2,50000,0,0.00,2,2,0,2,50000,50000,0,50000,0,0,0,0,0.00,0.00,0.00,0.00
2016-07-15 11:50:00,2,50000,0,0.00,2,2,0,2,50000,50000,0,50000,0,0,0,0,0.00,0.00,0.00,0.00
2016-07-15 12:00:00,2,50000,0,0.00,2,2,0,2,50000,50000,0,50000,0,0,0,0,0.00,0.00,0.00,0.00
2016-07-15 12:10:00,2,50000,0,0.00,2,2,0,2,50000,50000,0,50000,0,0,0,0,0.00,0.00,0.00,0.00
2016-07-15 12:20:00,2,50000,0,0.00,2,2,0,2,50000,50000,0,50000,0,0,0,0,0.00,0.00,0.00,0.00
2016-07-15 12:30:00,2,50000,0,0.00,2,2,0,2,50000,50000,0,50000,0,0,0,0,0.00,0.00,0.00,0.00
2016-07-15 12:40:00,2,50000,0,0.00,2,2,0,2,50000,50000,0,50000,0,0,0,0,0.00,0.00,0.00,0.00
2016-07-15 12:50:00,2,50000,0,0.00,2,2,0,2,50000,50000,0,50000,0,0,0,0,0.00,0.00,0.00,0.00
2016-07-15 13:00:00,2,50000,0,0.00,2,2,0,2,50000,50000,0,50000,0,0,0,0,0.00,0.00,0.00,0.00
2016-07-15 13:10:00,2,50000,0,0.00,2,2,0,2,50000,50000,0,50000,0,0,0,0,0.00,0.00,0.00,0.00
2016-07-15 13:20:00,2,50000,0,0.00,2,2,0,2,50000,50000,0,50000,0,0,0,0,0.00,0.00,0.00,0.00
2016-07-15 13:30:00,2,49716,0,0.00,2,2,0,2,47642,50000,706,50000,0,0,0,0,0.00,0.00,0.00,0.00
2016-07-15 13:40:00,2,50000,0,0.00,2,2,0,2,50000,50000,0,50000,0,0,0,0,0.00,0.00,0.00,0.00
2016-07-15 13:50:00,2,49869,0,0.00,2,2,0,2,48694,50000,392,50000,0,0,0,0,0.00,0.00,0.00,0.00
2016-07-15 14:00:00,2,39494,0,0.00,2,2,0,2,12027,50000,13532,47667,0,0,0,0,0.00,0.00,0.00,0.00
"Period start","avg(HW err(1)/warn(2) (#))","avg(Visibility (m))","avg(Weather code (#))","avg(Precip intensity (mm/h))","min(HW err(1)/warn(2) (#))","max(HW err(1)/warn(2) (#))","std(HW err(1)/warn(2) (#))","med(HW err(1)/warn(2) (#))","min(Visibility (m))","max(Visibility (m))","std(Visibility (m))","med(Visibility (m))","min(Weather code (#))","max(Weather code (#))","std(Weather code (#))","med(Weather code (#))","min(Precip intensity (mm/h))","max(Precip intensity (mm/h))","std(Precip intensity (mm/h))","med(Precip intensity (mm/h))"
2016-07-15 16:20:00,2,12222,46,0.26,2,2,0,2,5685,18666,4329,13525,40,52,6,46,0.00,1.30,0.42,0.00
2016-07-15 16:30:00,2,17526,20,0.07,2,2,0,2,8515,31995,7202,15730,0,52,25,0,0.00,0.60,0.18,0.00
2016-07-15 16:40:00,2,11573,24,0.27,2,2,0,2,4873,28399,7260,7718,0,61,30,0,0.00,1.00,0.37,0.00
2016-07-15 16:50:00,2,6188,57,1.24,2,2,0,2,3504,12418,2594,5422,51,61,5,61,0.00,3.40,1.16,0.80
2016-07-15 17:00:00,2,23806,10,0.00,2,2,0,2,13671,44245,10020,20276,0,51,14,10,0.00,0.00,0.00,0.00
2016-07-15 17:10:00,2,48912,0,0.00,2,2,0,2,43220,50000,2103,50000,0,0,0,0,0.00,0.00,0.00,0.00
2016-07-15 17:20:00,2,8765,45,0.51,2,2,0,2,2535,50000,13937,3397,0,61,23,52,0.00,2.20,0.65,0.38
2016-07-15 17:30:00,2,6243,59,2.81,2,2,0,2,3470,8058,1494,6579,52,61,4,61,1.40,6.45,1.54,2.03
2016-07-15 17:40:00,2,5054,62,3.15,2,2,0,2,2993,8607,1571,4930,61,67,2,61,1.25,7.20,1.90,2.58
2016-07-15 17:50:00,2,6837,62,2.94,2,2,0,2,4943,9330,1496,6546,61,67,2,61,0.75,5.80,1.51,2.68
2016-07-15 18:00:00,2,6038,61,1.90,2,2,0,2,3620,9911,1997,5638,61,61,0,61,0.25,3.60,1.10,1.45
2016-07-15 18:10:00,2,10331,50,0.58,2,2,0,2,5076,17849,4486,9764,10,61,20,61,0.00,1.60,0.64,0.20
2016-07-15 18:20:00,2,4246,66,3.62,2,2,0,2,3099,7159,1321,3476,61,67,2,67,1.25,6.15,1.70,3.70
2016-07-15 18:30:00,2,5989,63,3.46,2,2,0,2,3299,9529,1908,5760,61,67,3,61,0.55,7.75,2.31,3.17
2016-07-15 18:40:00,2,3205,69,3.76,2,2,0,2,1789,3834,616,3346,61,74,4,67,1.05,8.50,1.97,3.23
2016-07-15 18:50:00,2,7084,64,1.59,2,2,0,2,2906,13504,3066,7194,61,67,3,64,0.05,3.50,1.25,1.20
2016-07-15 19:00:00,2,26746,28,0.03,2,2,0,2,13588,45572,10657,24206,0,61,28,26,0.00,0.15,0.06,0.00
2016-07-15 19:10:00,2,49401,0,0.00,2,2,0,2,46504,50000,1219,50000,0,0,0,0,0.00,0.00,0.00,0.00
2016-07-15 19:20:00,2,34661,24,0.95,2,2,0,2,7096,50000,19044,50000,0,61,30,0,0.00,4.70,1.57,0.00
2016-07-15 19:30:00,2,14608,61,2.42,2,2,0,2,7880,24171,5315,14432,61,61,0,61,0.75,5.25,1.58,2.08
2016-07-15 19:40:00,2,23757,61,0.57,2,2,0,2,8287,42279,12688,21188,61,61,0,61,0.00,4.60,1.35,0.10
2016-07-15 19:50:00,2,46417,0,0.00,2,2,0,2,35200,50000,4926,49537,0,0,0,0,0.00,0.00,0.00,0.00
2016-07-15 20:00:00,2,34578,13,0.02,2,2,0,2,12869,50000,15106,38377,0,51,20,0,0.00,0.10,0.03,0.00
2016-07-15 20:10:00,2,49611,0,0.00,2,2,0,2,47816,50000,785,50000,0,0,0,0,0.00,0.00,0.00,0.00
2016-07-15 20:20:00,2,50000,0,0.00,2,2,0,2,50000,50000,0,50000,0,0,0,0,0.00,0.00,0.00,0.00
2016-07-15 20:30:00,2,49695,0,0.00,2,2,0,2,46946,50000,916,50000,0,0,0,0,0.00,0.00,0.00,0.00
2016-07-15 20:40:00,2,47681,0,0.00,2,2,0,2,38471,50000,3613,49520,0,0,0,0,0.00,0.00,0.00,0.00
2016-07-15 20:50:00,1,31243,14,0.27,0,2,1,0,12428,50000,14561,31375,0,61,22,0,0.00,1.30,0.46,0.00
2016-07-15 21:00:00,2,28962,49,0.51,2,2,0,2,14807,48679,12472,24700,0,61,24,61,0.00,1.95,0.66,0.17
2016-07-15 21:10:00,2,33460,41,0.08,2,2,0,2,14703,44996,10391,34278,0,61,16,41,0.00,0.30,0.11,0.03
2016-07-15 21:20:00,2,17838,55,1.66,2,2,0,2,8057,44806,11702,13240,51,61,4,52,0.15,3.10,0.93,1.68
2016-07-15 21:30:00,2,32440,24,0.29,2,2,0,2,8038,50000,15082,36892,0,61,30,0,0.00,1.05,0.41,0.00
2016-07-15 21:40:00,2,20185,41,1.23,2,2,0,2,8170,50000,15624,11132,0,61,22,41,0.00,4.05,1.25,0.97
2016-07-15 21:50:00,2,42183,53,0.14,2,2,0,2,19259,50000,11600,50000,41,61,10,61,0.00,0.75,0.23,0.03
2016-07-15 22:00:00,2,12363,57,0.66,2,2,0,2,6516,24067,4532,11622,41,61,8,61,0.05,1.05,0.31,0.78
2016-07-15 22:10:00,2,26894,59,0.29,2,2,0,2,14352,48796,13463,18924,51,61,4,61,0.00,1.10,0.34,0.12
2016-07-15 22:20:00,2,50000,8,0.00,0,2,1,2,50000,50000,0,50000,0,41,16,0,0.00,0.00,0.00,0.00
2016-07-15 22:30:00,0,48992,0,0.00,0,0,0,0,44580,50000,1846,50000,0,0,0,0,0.00,0.00,0.00,0.00
2016-07-15 22:40:00,0,43455,0,0.00,0,0,0,0,35345,50000,5883,44651,0,0,0,0,0.00,0.00,0.00,0.00
2016-07-15 22:50:00,2,43508,0,0.00,2,2,0,2,34516,50000,6739,45532,0,0,0,0,0.00,0.00,0.00,0.00
2016-07-15 23:00:00,2,25036,41,0.61,2,2,0,2,11285,50000,12548,21364,0,61,22,41,0.00,4.05,1.17,0.23
2016-07-15 23:10:00,2,28936,61,0.87,2,2,0,2,17694,43830,8970,26418,61,61,0,61,0.05,2.35,0.78,0.55
2016-07-15 23:20:00,2,16726,63,0.86,2,2,0,2,10705,28663,5356,15166,61,67,3,61,0.05,2.40,0.72,0.60
2016-07-15 23:30:00,2,17342,66,1.34,2,2,0,2,6147,40693,11069,14114,61,71,5,66,0.05,4.95,1.51,0.82
2016-07-15 23:40:00,2,22439,62,0.60,2,2,0,2,12641,40651,8476,19484,61,71,3,61,0.00,1.50,0.50,0.53
2016-07-15 23:50:00,2,23173,55,1.10,2,2,0,2,15232,38369,7911,18934,0,61,18,61,0.00,4.40,1.71,0.03
